Lapeer, MI

1:24 PM EST on December 12, 2017 (GMT -0500)
Lapeer

Weather History for KD95 - September, 2013

Change the Weather History Date:

Friday, September 20, 2013

  Actual Average (KFNT) Record (KFNT)
Temperature  
Mean Temperature 72 °F -  
Max Temperature 79 °F 69 °F 89 °F (1998)
Min Temperature 66 °F 50 °F 33 °F (1962)
Cooling Degree Days 8    
Growing Degree Days 22 (Base 50)    
Moisture  
Dew Point 67 °F    
Average Humidity 88    
Maximum Humidity 95    
Minimum Humidity 68    
Precipitation  
Precipitation 0.12 in - - ()
Sea Level Pressure  
Sea Level Pressure 29.81 in    
Wind  
Wind Speed 7 mph (SSW)    
Max Wind Speed 14 mph    
Max Gust Speed 21 mph    
Visibility 8 miles    
Events Rain    
Averages and records for this station are not official NWS values.
T = Trace of Precipitation, MM = Missing Value Source: NWS Daily Summary

Daily Weather History Graph

Daily Weather History Graph

Search for Another Location

Airport or City:

Trip Planner

Search our weather history database for the weather conditions in past years. The results will help you decide how hot, cold, wet, or windy it might be!

Date:

Astronomy

Sep. 20, 2013 Rise Set
Actual Time 7:18 AM EDT 7:33 PM EDT
Civil Twilight 6:50 AM EDT 8:01 PM EDT
Nautical Twilight 6:16 AM EDT 8:35 PM EDT
Astronomical Twilight 5:42 AM EDT 9:09 PM EDT
Moon 8:02 PM EDT (9/20) 8:35 AM EDT (9/20)
Length of Visible Light 13h 11m
Length of Day
12h 15m
Full, 98% of the Moon is Illuminated
Sep 20
Full
Sep 26
Last Quarter
Oct 4
New
Oct 11
First Quarter
Oct 18
Full

Hourly Weather History & Observations

Time (EDT) Temp. Dew Point Humidity Pressure Visibility Wind Dir Wind Speed Gust Speed Precip Events Conditions
12:14 AM 68.5 °F 66.2 °F 92% 29.92 in 7.0 mi SSE 5.8 mph - N/A   Scattered Clouds
12:33 AM 68.5 °F 66.2 °F 92% 29.92 in 7.0 mi SE 5.8 mph - N/A   Mostly Cloudy
12:53 AM 68.4 °F 66.2 °F 93% 29.91 in 7.0 mi SSE 5.8 mph - N/A   Mostly Cloudy
1:14 AM 68.2 °F 66.2 °F 93% 29.91 in 7.0 mi SSE 4.6 mph - N/A   Overcast
1:33 AM 68.5 °F 66.2 °F 92% 29.90 in 7.0 mi SSE 5.8 mph - N/A   Overcast
1:53 AM 68.4 °F 66.2 °F 93% 29.90 in 7.0 mi SSE 4.6 mph - N/A   Overcast
2:14 AM 68.0 °F 65.8 °F 93% 29.90 in 7.0 mi SSE 5.8 mph - N/A   Mostly Cloudy
2:33 AM 68.0 °F 66.0 °F 93% 29.90 in 7.0 mi SE 5.8 mph - N/A   Mostly Cloudy
2:53 AM 67.3 °F 65.7 °F 95% 29.88 in 4.0 mi SSE 5.8 mph - N/A   Overcast
3:14 AM 67.6 °F 66.0 °F 95% 29.86 in 5.0 mi SSE 4.6 mph - N/A   Overcast
3:33 AM 68.2 °F 66.0 °F 93% 29.87 in 7.0 mi SSE 3.5 mph - N/A   Overcast
3:53 AM 68.9 °F 66.2 °F 91% 29.86 in 10.0 mi South 6.9 mph - N/A   Overcast
4:14 AM 69.1 °F 66.2 °F 91% 29.87 in 10.0 mi South 8.1 mph - N/A   Overcast
4:33 AM 69.3 °F 66.2 °F 90% 29.86 in 10.0 mi South 8.1 mph - N/A   Overcast
4:53 AM 68.9 °F 66.2 °F 91% 29.86 in 10.0 mi SSW 5.8 mph - N/A   Overcast
5:14 AM 68.4 °F 66.2 °F 93% 29.85 in 7.0 mi South 6.9 mph - N/A   Mostly Cloudy
5:33 AM 68.9 °F 66.4 °F 92% 29.85 in 7.0 mi SSW 3.5 mph - N/A   Mostly Cloudy
5:54 AM 68.7 °F 66.4 °F 92% 29.85 in 4.0 mi SSE 5.8 mph - 0.07 in Rain Heavy Rain
6:13 AM 68.0 °F 66.2 °F 94% 29.84 in 7.0 mi South 6.9 mph - N/A   Overcast
6:33 AM 68.0 °F 66.2 °F 94% 29.84 in 7.0 mi South 8.1 mph - N/A   Overcast
6:54 AM 68.4 °F 66.6 °F 94% 29.83 in 7.0 mi South 6.9 mph - N/A   Overcast
7:13 AM 68.5 °F 67.1 °F 95% 29.83 in 7.0 mi South 8.1 mph - N/A   Overcast
7:33 AM 69.1 °F 67.5 °F 95% 29.84 in 4.0 mi South 6.9 mph - N/A   Overcast
7:54 AM 69.8 °F 68.0 °F 94% 29.83 in 4.0 mi South 5.8 mph - N/A   Overcast
8:13 AM 69.8 °F 68.0 °F 94% 29.83 in 3.0 mi South 5.8 mph - N/A   Mostly Cloudy
8:33 AM 70.2 °F 68.4 °F 94% 29.83 in 3.0 mi South 6.9 mph - N/A   Overcast
8:54 AM 70.7 °F 68.5 °F 93% 29.82 in 3.0 mi South 5.8 mph - N/A   Overcast
9:13 AM 71.8 °F 68.9 °F 91% 29.84 in 4.0 mi SSW 8.1 mph - N/A   Overcast
9:33 AM 71.6 °F 68.9 °F 91% 29.83 in 4.0 mi SSW 9.2 mph - N/A   Overcast
9:54 AM 71.6 °F 68.5 °F 90% 29.83 in 4.0 mi SSW 10.4 mph - N/A   Overcast
10:13 AM 72.0 °F 68.9 °F 90% 29.83 in 4.0 mi SSW 8.1 mph - N/A   Overcast
10:33 AM 72.5 °F 68.9 °F 88% 29.83 in 5.0 mi SSW 8.1 mph - N/A   Overcast
10:54 AM 73.6 °F 69.1 °F 86% 29.83 in 5.0 mi SW 9.2 mph - N/A   Haze
11:13 AM 74.8 °F 69.1 °F 82% 29.82 in 7.0 mi SW 9.2 mph - N/A   Mostly Cloudy
11:33 AM 75.2 °F 68.9 °F 81% 29.82 in 7.0 mi SW 10.4 mph - N/A   Mostly Cloudy
11:54 AM 73.9 °F 69.3 °F 85% 29.81 in 7.0 mi SW 10.4 mph - N/A Rain Light Rain
12:13 PM 73.4 °F 69.6 °F 88% 29.81 in 7.0 mi SSW 11.5 mph 17.3 mph N/A Rain Light Rain
12:33 PM 75.2 °F 69.4 °F 82% 29.80 in 10.0 mi SW 8.1 mph - N/A   Scattered Clouds
12:54 PM 77.0 °F 68.9 °F 76% 29.80 in 10.0 mi WSW 12.7 mph 17.3 mph N/A   Scattered Clouds
1:13 PM 77.9 °F 68.9 °F 74% 29.79 in 10.0 mi WSW 10.4 mph 18.4 mph N/A   Mostly Cloudy
1:33 PM 77.2 °F 68.5 °F 75% 29.79 in 10.0 mi WSW 12.7 mph 20.7 mph N/A   Mostly Cloudy
1:54 PM 79.3 °F 68.2 °F 69% 29.78 in 10.0 mi SW 11.5 mph 19.6 mph N/A   Mostly Cloudy
2:13 PM 79.7 °F 68.2 °F 68% 29.78 in 10.0 mi WSW 11.5 mph - N/A   Mostly Cloudy
2:33 PM 78.6 °F 67.3 °F 68% 29.77 in 10.0 mi SW 13.8 mph 18.4 mph N/A   Mostly Cloudy
2:54 PM 77.9 °F 67.1 °F 69% 29.77 in 10.0 mi SW 12.7 mph 19.6 mph N/A   Overcast
3:13 PM 77.0 °F 66.9 °F 71% 29.77 in 10.0 mi WSW 11.5 mph 16.1 mph N/A   Overcast
3:34 PM 76.5 °F 67.3 °F 73% 29.77 in 10.0 mi West 10.4 mph - N/A   Overcast
3:53 PM 75.2 °F 66.4 °F 74% 29.76 in 10.0 mi West 8.1 mph 16.1 mph N/A Rain Light Rain
4:13 PM 74.3 °F 65.8 °F 75% 29.76 in 10.0 mi West 9.2 mph - N/A   Light Drizzle
4:34 PM 70.9 °F 66.9 °F 87% 29.76 in 7.0 mi West 4.6 mph - 0.01 in Rain Rain
4:53 PM 70.2 °F 67.1 °F 90% 29.77 in 10.0 mi WSW 4.6 mph - 0.01 in Rain Rain
5:13 PM 70.3 °F 67.1 °F 89% 29.76 in 10.0 mi West 3.5 mph - N/A   Overcast
5:34 PM 70.3 °F 67.3 °F 90% 29.76 in 10.0 mi SW 4.6 mph - N/A   Overcast
5:53 PM 70.2 °F 65.8 °F 86% 29.76 in 10.0 mi SW 5.8 mph - N/A   Overcast
6:13 PM 69.8 °F 65.5 °F 86% 29.75 in 10.0 mi SW 6.9 mph - N/A   Mostly Cloudy
6:34 PM 69.3 °F 65.3 °F 87% 29.75 in 10.0 mi WSW 6.9 mph - N/A   Scattered Clouds
6:53 PM 69.3 °F 65.3 °F 87% 29.75 in 10.0 mi WSW 5.8 mph - N/A   Mostly Cloudy
7:13 PM 69.1 °F 65.3 °F 88% 29.74 in 10.0 mi SW 6.9 mph - N/A   Drizzle
7:34 PM 68.9 °F 65.3 °F 88% 29.74 in 10.0 mi WSW 6.9 mph - N/A Rain Light Rain
7:53 PM 68.4 °F 65.3 °F 90% 29.74 in 10.0 mi WSW 5.8 mph - N/A   Clear
8:13 PM 68.2 °F 65.3 °F 90% 29.75 in 10.0 mi WSW 4.6 mph - N/A   Clear
8:34 PM 68.0 °F 65.3 °F 91% 29.74 in 10.0 mi WSW 3.5 mph - N/A   Scattered Clouds
8:53 PM 68.0 °F 65.3 °F 91% 29.75 in 10.0 mi WSW 5.8 mph - N/A   Scattered Clouds
9:13 PM 67.8 °F 65.3 °F 92% 29.75 in 10.0 mi SW 5.8 mph - N/A   Mostly Cloudy
9:33 PM 67.6 °F 65.3 °F 92% 29.75 in 10.0 mi WSW 4.6 mph - N/A   Overcast
9:53 PM 67.6 °F 65.3 °F 92% 29.75 in 10.0 mi SW 3.5 mph - N/A Rain Rain
10:13 PM 67.3 °F 65.3 °F 93% 29.76 in 10.0 mi WSW 4.6 mph - 0.01 in Rain Light Rain
10:33 PM 67.1 °F 65.5 °F 95% 29.75 in 7.0 mi WSW 3.5 mph - 0.02 in Rain Light Rain
10:53 PM 67.1 °F 65.5 °F 95% 29.75 in 7.0 mi West 3.5 mph - 0.02 in Rain Light Rain
11:14 PM 66.7 °F 65.3 °F 95% 29.75 in 7.0 mi Calm Calm - 0.01 in Rain Light Rain
11:33 PM 66.6 °F 64.8 °F 94% 29.75 in 10.0 mi WSW 3.5 mph - 0.01 in Rain Light Rain
11:53 PM 66.4 °F 64.9 °F 95% 29.74 in 7.0 mi Calm Calm - 0.02 in Rain Light Rain